Jackson, MS

11:17 PM CDT on March 24, 2017 (GMT -0500)
Jackson-Evers International

Weather History for KJAN - February, 2014

Change the Weather History Date:

Wednesday, February 19, 2014

  Actual Average Record
Temperature  
Mean Temperature 68 °F 50 °F  
Max Temperature 79 °F 62 °F 82 °F (1986)
Min Temperature 57 °F 39 °F 18 °F (1978)
Degree Days  
Heating Degree Days 0 15  
Month to date heating degree days 356 317  
Since 1 July heating degree days 2139 1869  
Cooling Degree Days 3 0  
Month to date cooling degree days 3 0  
Year to date cooling degree days 3 4  
Growing Degree Days 18 (Base 50)    
Moisture  
Dew Point 58 °F    
Average Humidity 71    
Maximum Humidity 100    
Minimum Humidity 42    
Precipitation  
Precipitation 0.00 in 0.17 in 2.33 in (1991)
Month to date precipitation 3.48 3.27  
Year to date precipitation 5.09 8.24  
Sea Level Pressure  
Sea Level Pressure 30.00 in    
Wind  
Wind Speed 8 mph (South)    
Max Wind Speed 16 mph    
Max Gust Speed 22 mph    
Visibility 9 miles    
Events      
T = Trace of Precipitation, MM = Missing Value Source: NWS Daily Summary

Daily Weather History Graph

Daily Weather History Graph

Search for Another Location

Airport or City:

Trip Planner

Search our weather history database for the weather conditions in past years. The results will help you decide how hot, cold, wet, or windy it might be!

Date:

Astronomy

Feb. 19, 2014 Rise Set
Actual Time 6:38 AM CST 5:49 PM CST
Civil Twilight 6:13 AM CST 6:14 PM CST
Nautical Twilight 5:45 AM CST 6:43 PM CST
Astronomical Twilight 5:16 AM CST 7:11 PM CST
Moon 10:23 PM CST (2/19) 9:02 AM CST (2/19)
Length of Visible Light 12h 00m
Length of Day
11h 10m
Waning Gibbous, 79% of the Moon is Illuminated
Feb 19
Waning Gibbous
Feb 22
Last Quarter
Mar 1
New
Mar 8
First Quarter
Mar 16
Full

Hourly Weather History & Observations

Time (CST) Temp. Dew Point Humidity Pressure Visibility Wind Dir Wind Speed Gust Speed Precip Events Conditions
12:54 AM 62.1 °F 57.9 °F 86% 30.02 in 10.0 mi SSW 8.1 mph - N/A   Clear
1:16 AM 62.6 °F 57.2 °F 82% 30.03 in 10.0 mi SSW 8.1 mph - N/A   Mostly Cloudy
1:23 AM 60.8 °F 57.2 °F 88% 30.04 in 10.0 mi SSW 8.1 mph - N/A   Scattered Clouds
1:54 AM 61.0 °F 57.9 °F 90% 30.02 in 10.0 mi South 8.1 mph - N/A   Scattered Clouds
2:02 AM 60.8 °F 57.2 °F 88% 30.03 in 10.0 mi South 5.8 mph - N/A   Mostly Cloudy
2:24 AM 57.2 °F 55.4 °F 94% 30.03 in 10.0 mi South 5.8 mph - N/A   Scattered Clouds
2:45 AM 59.0 °F 57.2 °F 94% 30.04 in 10.0 mi South 5.8 mph - N/A   Mostly Cloudy
2:54 AM 57.9 °F 57.0 °F 97% 30.02 in 10.0 mi South 8.1 mph - N/A   Scattered Clouds
3:04 AM 59.0 °F 57.2 °F 94% 30.04 in 10.0 mi South 3.5 mph - N/A   Mostly Cloudy
3:35 AM 59.0 °F 57.2 °F 94% 30.03 in 10.0 mi SSE 5.8 mph - N/A   Overcast
3:54 AM 60.1 °F 57.9 °F 93% 30.03 in 10.0 mi SSE 5.8 mph - N/A   Overcast
4:16 AM 60.8 °F 57.2 °F 88% 30.04 in 9.0 mi South 6.9 mph - N/A   Overcast
4:54 AM 60.1 °F 57.9 °F 93% 30.03 in 8.0 mi SSE 9.2 mph - N/A   Mostly Cloudy
5:04 AM 60.8 °F 57.2 °F 88% 30.04 in 8.0 mi South 8.1 mph - N/A   Scattered Clouds
5:54 AM 59.0 °F 57.9 °F 96% 30.03 in 5.0 mi South 9.2 mph - N/A   Mostly Cloudy
6:15 AM 59.0 °F 57.2 °F 94% 30.04 in 6.0 mi South 5.8 mph - N/A   Mostly Cloudy
6:25 AM 59.0 °F 57.2 °F 94% 30.04 in 6.0 mi South 6.9 mph - N/A   Mostly Cloudy
6:54 AM 57.9 °F 57.0 °F 97% 30.04 in 3.0 mi Calm Calm - N/A   Mostly Cloudy
7:54 AM 62.1 °F 60.1 °F 93% 30.06 in 4.0 mi South 4.6 mph - N/A   Overcast
8:54 AM 64.0 °F 61.0 °F 90% 30.06 in 5.0 mi SW 9.2 mph - N/A   Overcast
9:54 AM 66.9 °F 60.1 °F 79% 30.07 in 6.0 mi South 8.1 mph - N/A   Haze
10:01 AM 66.2 °F 60.8 °F 83% 30.08 in 6.0 mi SSW 9.2 mph - N/A   Haze
10:54 AM 70.0 °F 60.1 °F 71% 30.05 in 10.0 mi SSW 6.9 mph - N/A   Mostly Cloudy
11:54 AM 72.0 °F 59.0 °F 64% 30.02 in 10.0 mi WSW 6.9 mph - N/A   Mostly Cloudy
12:01 PM 71.6 °F 59.0 °F 64% 30.03 in 10.0 mi WSW 6.9 mph - N/A   Mostly Cloudy
12:54 PM 75.0 °F 57.0 °F 53% 29.98 in 10.0 mi SW 8.1 mph - N/A   Mostly Cloudy
1:54 PM 77.0 °F 55.9 °F 48% 29.95 in 10.0 mi South 6.9 mph - N/A   Mostly Cloudy
2:54 PM 78.1 °F 54.0 °F 43% 29.92 in 10.0 mi South 9.2 mph - N/A   Mostly Cloudy
3:54 PM 77.0 °F 53.1 °F 43% 29.92 in 10.0 mi South 9.2 mph - N/A   Scattered Clouds
4:54 PM 75.0 °F 54.0 °F 48% 29.91 in 10.0 mi SSE 11.5 mph - N/A   Mostly Cloudy
5:54 PM 69.1 °F 54.0 °F 58% 29.92 in 10.0 mi SSE 5.8 mph - N/A   Scattered Clouds
6:54 PM 66.9 °F 55.0 °F 66% 29.91 in 10.0 mi SSE 8.1 mph - N/A   Mostly Cloudy
7:54 PM 64.0 °F 55.0 °F 73% 29.92 in 10.0 mi SSE 5.8 mph - N/A   Partly Cloudy
8:54 PM 66.9 °F 57.0 °F 70% 29.93 in 10.0 mi SSE 10.4 mph - N/A   Clear
9:54 PM 66.9 °F 61.0 °F 81% 29.91 in 10.0 mi South 13.8 mph - N/A   Clear
10:54 PM 66.0 °F 61.0 °F 84% 29.91 in 10.0 mi South 12.7 mph - N/A   Clear
11:54 PM 64.9 °F 61.0 °F 87% 29.91 in 10.0 mi South 12.7 mph - N/A   Scattered Clouds